Content
SEND FEEDBACK

Spain Flag

MÁLAGA, SPAIN


Home > Europe > Spain
Elevation: 7 meters     Latitude: 36 40N     Longitude: 004 29W

WEATHER
 
SELECT A DAY
Number of Records: 361,752;   Date Range: 7/1/96 - 3/22/16
 
SHARE

PRINT THIS DATA

[ ← Previous Day ]
WEATHER ALMANAC - 29 OCTOBER, 2013
[ Next Day → ]
[ °F ]   °C
Weather ElementAverageHighLow
Temperature20.5 °C23 °C (1:00 pm)18 °C (8:30 pm)
Dewpoint7.1 °C13 °C (12:30 am)0 °C (3:00 pm)
Humidity42.8 %68 % (9:30 am)21 % (1:00 pm)
Barometer1016.6 hPa1017.9 hPa (9:30 am)1015.2 hPa (3:30 am)
Wind Speed29.8 km/h40.7 km/h (10:00 am)
Wind Gust62.9 km/h (4:30 pm)
Weather ElementAverage
Visibility12.9 km
Wind DirectionWNW (292.9 °)

Weather ElementTotal
Precipitation---
Cooling Degree Days2.2 (Base 18.3)
Growing Degree Days10.5 (Base 10)
Averaged from 51 records on 29 October, 2013
WEATHER CONDITIONS BREAKOUT
WIND DIRECTION BREAKOUT
WEATHER BY HOUR - 29 OCTOBER, 2013
[ °F ]   °C
Local TimeTemperatureDewpointHumidityBarometerVisibilityWind DirectionWind SpeedGust SpeedPrecipitationEventsConditions
12:30 AM22 °C13 °C57 %1016.3 hPaWest (280°)25.9 km/hClear
1:00 AM22.2 °C11.7 °C41 %1016.6 hPa19.3 kmWest (280°)25.9 km/hClear
1:00 AM22 °C12 °C53 %1016.3 hPaWest (280°)24.1 km/hClear
1:30 AM22 °C10 °C46 %1016.3 hPaWest (270°)24.1 km/hClear
2:00 AM22 °C10 °C46 %1016.3 hPaWest (280°)22.2 km/hClear
2:30 AM22 °C9 °C43 %1016.3 hPaWest (270°)29.6 km/hClear
3:00 AM21 °C9 °C46 %1016.3 hPaWest (270°)27.8 km/hClear
3:30 AM21 °C9 °C46 %1015.2 hPaWest (280°)27.8 km/hClear
4:00 AM21 °C9 °C46 %1015.2 hPaWest (280°)33.3 km/hClear
4:30 AM21 °C9 °C46 %1015.2 hPaWest (280°)31.5 km/hClear
5:00 AM21 °C10 °C49 %1015.2 hPaWest (280°)29.6 km/hClear
5:30 AM20 °C10 °C52 %1016.3 hPaWest (280°)31.5 km/h51.8 km/hClear
6:00 AM20 °C11 °C56 %1016.3 hPaWNW (290°)29.6 km/hClear
6:30 AM20 °C11 °C56 %1016.3 hPaWNW (290°)31.5 km/h50.1 km/hClear
7:00 AM20 °C11.7 °C48 %1016.6 hPa19.3 kmWest (280°)35.2 km/hClear
7:00 AM19 °C12 °C64 %1016.3 hPaWNW (290°)35.2 km/hClear
7:30 AM19 °C12 °C64 %1016.3 hPa10 kmWest (280°)33.3 km/hPartly Cloudy
8:00 AM19 °C12 °C64 %1016.3 hPa10 kmWest (280°)27.8 km/hPartly Cloudy
8:30 AM19 °C12 °C64 %1017.3 hPa10 kmWest (270°)33.3 km/hPartly Cloudy
9:00 AM19 °C12 °C64 %1017.3 hPa10 kmWest (280°)35.2 km/hPartly Cloudy
9:30 AM19 °C13 °C68 %1017.9 hPa10 kmWNW (290°)38.9 km/h59.2 km/hPartly Cloudy
10:00 AM20 °C13 °C64 %1017.9 hPa10 kmWNW (290°)40.7 km/hPartly Cloudy
10:30 AM20 °C12 °C60 %1017.9 hPa10 kmWNW (290°)40.7 km/h61.2 km/hPartly Cloudy
11:00 AM20 °C11 °C56 %1017.3 hPa10 kmWNW (290°)38.9 km/h57.5 km/hPartly Cloudy
11:30 AM21 °C10 °C49 %1017.3 hPa10 kmWNW (300°)38.9 km/h57.5 km/hPartly Cloudy
12:00 PM22 °C9 °C43 %1017.3 hPa10 kmWNW (300°)35.2 km/hPartly Cloudy
12:30 PM22 °C8 °C41 %1017.3 hPa10 kmWNW (290°)35.2 km/h53.8 km/hPartly Cloudy
1:00 PM22.8 °C5 °C21 %1016.9 hPa40.2 kmNW (310°)29.6 km/hScattered Clouds
1:00 PM23 °C5 °C31 %1017.3 hPaNW (310°)29.6 km/h50.1 km/hClear
1:30 PM23 °C4 °C29 %1016.3 hPaNW (310°)24.1 km/hClear
2:00 PM23 °C2 °C25 %1016.3 hPaWNW (300°)24.1 km/h44.4 km/hClear
2:30 PM23 °C1 °C23 %1016.3 hPaNW (310°)25.9 km/h44.4 km/hClear
3:00 PM23 °C0 °C22 %1016.3 hPaNW (320°)27.8 km/hClear
3:30 PM23 °C0 °C22 %1015.2 hPaNW (320°)27.8 km/h48.1 km/hClear
4:00 PM22 °C1 °C25 %1015.2 hPaNW (310°)29.6 km/hClear
4:30 PM22 °C1 °C25 %1016.3 hPaNW (310°)33.3 km/h62.9 km/hClear
5:00 PM22 °C2 °C27 %1016.3 hPaNW (310°)24.1 km/hClear
5:30 PM21 °C1 °C27 %1015.2 hPa10 kmNW (320°)31.5 km/h57.5 km/hPartly Cloudy
6:00 PM20 °C2 °C30 %1016.3 hPa10 kmNW (310°)27.8 km/h48.1 km/hPartly Cloudy
6:30 PM19 °C3 °C35 %1016.3 hPa10 kmWNW (300°)37 km/hPartly Cloudy
7:00 PM20 °C3.3 °C23 %1016.9 hPa40.2 kmWNW (290°)25.9 km/hScattered Clouds
7:00 PM19 °C4 °C37 %1016.3 hPa10 kmWNW (300°)24.1 km/hPartly Cloudy
7:30 PM19 °C5 °C40 %1017.3 hPa10 kmWNW (300°)25.9 km/hPartly Cloudy
8:00 PM19 °C5 °C40 %1017.3 hPa10 kmWNW (300°)27.8 km/hPartly Cloudy
8:30 PM18 °C5 °C42 %1017.3 hPa10 kmWNW (300°)24.1 km/hPartly Cloudy
9:00 PM18 °C4 °C40 %1017.3 hPa10 kmWNW (290°)25.9 km/hPartly Cloudy
9:30 PM18 °C4 °C40 %1017.3 hPa10 kmWest (280°)29.6 km/hPartly Cloudy
10:00 PM18 °C5 °C42 %1017.3 hPa10 kmWNW (290°)27.8 km/hPartly Cloudy
10:30 PM18 °C4 °C40 %1017.9 hPa10 kmWNW (290°)29.6 km/hPartly Cloudy
11:00 PM18 °C2 °C34 %1017.9 hPa10 kmNW (310°)22.2 km/h42.6 km/hPartly Cloudy
11:30 PM18 °C1 °C32 %1017.9 hPa10 kmNW (310°)20.4 km/h40.7 km/hPartly Cloudy
Hourly data recorded from LEMG, located 0 kilometers away from Málaga, Spain




STORIES FROM OUR PARTNERS